FW0087 Weather Reports


Display with metric or nautical units.
time (UTC)temp
F
wind
direction
speed
MPH
gust
MPH
rain 1hr
in
rain 24hr
in
rain mn
in
humidity
%
barometer
mb
20260505021526 58 223 0.0 2.0 0.00 0.00 0.00 52 1002.9
20260505021028 58 216 0.0 0.0 0.00 0.00 0.00 54 1002.9
20260505020850 58 216 0.0 0.0 0.00 0.00 0.00 54 1003.1
20260505020511 57 216 0.0 0.0 0.00 0.00 0.00 54 1002.8
20260505020013 57 216 0.0 2.0 0.00 0.00 0.00 53 1002.8
20260505015511 57 216 0.0 5.0 0.00 0.00 0.00 54 1002.8
20260505015014 57 217 0.0 6.0 0.00 0.00 0.00 54 1002.8
20260505014512 57 211 0.0 4.0 0.00 0.00 0.00 55 1002.8
20260505014010 57 188 0.0 0.0 0.00 0.00 0.00 55 1002.8
20260505013510 58 188 0.0 0.0 0.00 0.00 0.00 54 1002.6
20260505013010 58 188 0.0 0.0 0.00 0.00 0.00 55 1002.6
20260505012510 58 188 0.0 0.0 0.00 0.00 0.00 53 1002.6
20260505012010 59 188 0.0 1.0 0.00 0.00 0.00 52 1002.6
20260505011511 59 188 0.0 1.0 0.00 0.00 0.00 52 1002.6
20260505011012 59 188 0.0 0.0 0.00 0.00 0.00 53 1002.6
20260505010510 60 188 0.0 0.0 0.00 0.00 0.00 51 1002.5
20260505010010 60 188 0.0 0.0 0.00 0.00 0.00 50 1002.5
20260505005509 60 188 0.0 0.0 0.00 0.00 0.00 50 1002.5
20260505005011 61 188 0.0 1.0 0.00 0.00 0.00 52 1002.5
20260505004515 61 188 0.0 0.0 0.00 0.00 0.00 51 1002.5
20260505004009 62 188 0.0 0.0 0.00 0.00 0.00 49 1002.5
20260505003512 62 188 0.0 2.0 0.00 0.00 0.00 51 1002.5
20260505003009 63 188 0.0 2.0 0.00 0.00 0.00 52 1002.5
20260505002511 64 188 0.0 0.0 0.00 0.00 0.00 44 1002.4
20260505002009 64 188 0.0 0.0 0.00 0.00 0.00 44 1002.4
20260505001509 65 188 0.0 0.0 0.00 0.00 0.00 48 1002.4
20260505001012 65 188 0.0 0.0 0.00 0.00 0.00 43 1002.4
20260505000508 66 188 0.0 0.0 0.00 0.00 0.00 41 1002.5
20260505000008 66 188 0.0 0.0 0.00 0.00 0.00 40 1002.4
20260504235507 67 188 0.0 0.0 0.00 0.00 0.00 41 1002.3
20260504235008 67 188 0.0 0.0 0.00 0.00 0.00 39 1002.4
20260504234510 68 188 0.0 0.0 0.00 0.00 0.00 39 1002.3
20260504234007 68 188 0.0 0.0 0.00 0.00 0.00 39 1002.4
20260504233507 69 188 0.0 0.0 0.00 0.00 0.00 38 1002.4
20260504233007 69 188 0.0 0.0 0.00 0.00 0.00 38 1002.4
20260504232507 69 188 0.0 0.0 0.00 0.00 0.00 38 1002.3
20260504232006 70 188 0.0 0.0 0.00 0.00 0.00 38 1002.3
20260504231506 70 188 0.0 1.0 0.00 0.00 0.00 38 1002.3
20260504231010 70 188 0.0 1.0 0.00 0.00 0.00 38 1002.3
20260504230506 70 188 0.0 1.0 0.00 0.00 0.00 37 1002.3
20260504230006 70 188 0.0 3.0 0.00 0.00 0.00 36 1002.2
20260504225505 70 219 0.0 3.0 0.00 0.00 0.00 35 1002.2
20260504225005 70 259 0.0 4.0 0.00 0.00 0.00 34 1002.2
20260504224505 71 225 0.0 5.0 0.00 0.00 0.00 35 1002.3
20260504224004 71 234 1.0 5.0 0.00 0.00 0.00 34 1002.2
20260504223504 71 289 1.0 5.0 0.00 0.00 0.00 36 1002.3
20260504223005 71 231 1.0 6.0 0.00 0.00 0.00 34 1002.3
20260504222504 71 250 1.0 10.0 0.00 0.00 0.00 33 1002.4
20260504222003 71 281 3.0 10.0 0.00 0.00 0.00 32 1002.3
20260504221503 71 252 4.0 9.0 0.00 0.00 0.00 34 1002.4
20260504221003 72 180 2.0 5.0 0.00 0.00 0.00 35 1002.4
20260504220502 72 265 1.0 7.0 0.00 0.00 0.00 35 1002.5
20260504220004 72 222 2.0 7.0 0.00 0.00 0.00 33 1002.5
20260504215501 72 224 2.0 11.0 0.00 0.00 0.00 34 1002.5
20260504215003 72 279 3.0 11.0 0.00 0.00 0.00 35 1002.6
20260504214601 72 279 4.0 11.0 0.00 0.00 0.00 34 1002.6
20260504214500 72 227 2.0 9.0 0.00 0.00 0.00 36 1002.6
20260504214100 72 236 2.0 12.0 0.00 0.00 0.00 33 1002.6
20260504213600 72 304 3.0 12.0 0.00 0.00 0.00 33 1002.7
20260504213111 72 302 3.0 10.0 0.00 0.00 0.00 34 1002.7
20260504212600 72 173 3.0 11.0 0.00 0.00 0.00 33 1002.6
20260504212059 72 22 3.0 11.0 0.00 0.00 0.00 33 1002.8
20260504212001 72 360 5.0 11.0 0.00 0.00 0.00 34 1002.7
20260504211559 72 132 3.0 10.0 0.00 0.00 0.00 33 1002.8
20260504211058 72 269 1.0 7.0 0.00 0.00 0.00 38 1002.8
20260504210600 72 287 2.0 13.0 0.00 0.00 0.00 38 1002.8
20260504210104 73 260 4.0 13.0 0.00 0.00 0.00 34 1002.8
20260504205558 72 238 1.0 9.0 0.00 0.00 0.00 43 1002.8
20260504205059 72 221 2.0 9.0 0.00 0.00 0.00 39 1002.8
20260504204603 72 317 3.0 11.0 0.00 0.00 0.00 38 1002.9
20260504204055 72 288 5.0 11.0 0.00 0.00 0.00 35 1003.0
20260504203555 72 302 2.0 10.0 0.00 0.00 0.00 37 1003.0
20260504203057 72 281 4.0 10.0 0.00 0.00 0.00 38 1003.1
20260504202554 72 309 4.0 10.0 0.00 0.00 0.00 38 1003.1
20260504202053 72 215 3.0 10.0 0.00 0.00 0.00 40 1003.2
20260504201552 72 271 3.0 15.0 0.00 0.00 0.00 40 1003.1
20260504201051 72 320 2.0 15.0 0.00 0.00 0.00 39 1003.3
20260504200551 72 181 6.0 11.0 0.00 0.00 0.00 40 1003.4
20260504200053 72 217 4.0 10.0 0.00 0.00 0.00 42 1003.4
20260504195649 72 292 4.0 12.0 0.00 0.00 0.00 41 1003.5
20260504195048 70 293 2.0 12.0 0.00 0.00 0.00 43 1003.6
20260504194548 71 171 2.0 8.0 0.00 0.00 0.00 45 1003.7
20260504194047 71 255 2.0 8.0 0.00 0.00 0.00 43 1003.7
20260504193546 72 192 4.0 13.0 0.00 0.00 0.00 45 1003.8
20260504193058 71 234 4.0 13.0 0.00 0.00 0.00 43 1003.9
20260504192545 70 217 4.0 12.0 0.00 0.00 0.00 45 1003.9
20260504192047 71 319 2.0 12.0 0.00 0.00 0.00 44 1004.0
20260504191544 71 29 4.0 12.0 0.00 0.00 0.00 44 1004.0
20260504191043 71 223 3.0 9.0 0.00 0.00 0.00 44 1004.0
20260504190543 70 293 1.0 8.0 0.00 0.00 0.00 43 1004.1
20260504190046 69 294 1.0 10.0 0.00 0.00 0.00 47 1004.3
20260504185541 70 257 4.0 10.0 0.00 0.00 0.00 44 1004.2
20260504185040 71 288 3.0 12.0 0.00 0.00 0.00 43 1004.4
20260504184542 71 212 4.0 10.0 0.00 0.00 0.00 46 1004.5
20260504184042 71 223 3.0 8.0 0.00 0.00 0.00 48 1004.6
20260504183539 71 257 1.0 11.0 0.00 0.00 0.00 46 1004.7
20260504183044 70 184 4.0 13.0 0.00 0.00 0.00 44 1004.7
20260504182536 70 292 4.0 14.0 0.00 0.00 0.00 43 1004.7
20260504182036 70 178 3.0 12.0 0.00 0.00 0.00 46 1004.7
20260504181537 70 299 6.0 12.0 0.00 0.00 0.00 46 1004.7
20260504181036 70 188 5.0 12.0 0.00 0.00 0.00 44 1004.7
20260504180536 69 256 3.0 9.0 0.00 0.00 0.00 45 1004.7
20260504180049 69 5 1.0 9.0 0.00 0.00 0.00 51 1004.8
20260504175535 69 81 3.0 12.0 0.00 0.00 0.00 45 1004.9
20260504175033 69 190 4.0 12.0 0.00 0.00 0.00 47 1005.0
20260504174532 70 340 4.0 12.0 0.00 0.00 0.00 49 1005.0
20260504174032 69 348 3.0 11.0 0.00 0.00 0.00 50 1005.0
20260504173532 69 244 2.0 11.0 0.00 0.00 0.00 48 1005.0
20260504173031 68 322 3.0 15.0 0.00 0.00 0.00 47 1005.0
20260504172529 68 271 4.0 15.0 0.00 0.00 0.00 46 1005.1
20260504172029 68 190 2.0 11.0 0.00 0.00 0.00 47 1005.1
20260504171528 68 155 4.0 10.0 0.00 0.00 0.00 50 1005.1
20260504171028 68 185 2.0 9.0 0.00 0.00 0.00 48 1005.2
20260504170527 68 184 3.0 12.0 0.00 0.00 0.00 50 1005.2
20260504151011 63 194 3.0 11.0 0.00 0.00 0.00 54 1006.2
20260504150510 63 293 4.0 10.0 0.00 0.00 0.00 52 1006.1
20260504141001 60 196 3.0 13.0 0.00 0.00 0.00 52 1006.4
20260504140501 60 189 7.0 13.0 0.00 0.00 0.00 51 1006.5
20260504140103 60 187 5.0 15.0 0.00 0.00 0.00 52 1006.5
20260504130550 57 240 2.0 7.0 0.00 0.00 0.00 56 1007.1
20260504110536 50 210 3.0 7.0 0.00 0.00 0.00 61 1007.2
20260504100532 50 205 2.0 5.0 0.00 0.00 0.00 59 1007.1
20260504081520 49 203 2.0 8.0 0.00 0.00 0.00 59 1007.6
20260504081019 49 203 1.0 8.0 0.00 0.00 0.00 59 1007.6
20260504080519 49 246 2.0 4.0 0.00 0.00 0.00 59 1007.7
20260504060106 51 183 1.0 4.0 0.00 0.00 0.00 55 1008.3
20260504050549 53 281 2.0 8.0 0.00 0.00 0.00 53 1008.5
20260504045549 53 187 2.0 10.0 0.00 0.00 0.00 53 1008.6
20260504045050 53 254 2.0 8.0 0.00 0.00 0.00 53 1008.6
20260504044548 53 298 1.0 11.0 0.00 0.00 0.00 53 1008.6
20260504044047 53 248 2.0 11.0 0.00 0.00 0.00 53 1008.6
20260504043546 53 221 3.0 10.0 0.00 0.00 0.00 54 1008.6
20260504043054 53 215 2.0 7.0 0.00 0.00 0.00 54 1008.6
20260504042544 53 268 2.0 7.0 0.00 0.00 0.00 54 1008.6
20260504042046 53 208 1.0 5.0 0.00 0.00 0.00 55 1008.6
20260504041543 53 261 1.0 7.0 0.00 0.00 0.00 55 1008.6
20260504041042 53 268 1.0 10.0 0.00 0.00 0.00 55 1008.6
20260504040542 53 253 1.0 10.0 0.00 0.00 0.00 54 1008.5
20260504040041 53 158 1.0 4.0 0.00 0.00 0.00 54 1008.5
20260504035540 53 215 0.0 3.0 0.00 0.00 0.00 55 1008.4
20260504035044 53 191 0.0 6.0 0.00 0.00 0.00 55 1008.4
20260504034547 53 288 1.0 11.0 0.00 0.00 0.00 55 1008.4
20260504034039 53 294 4.0 11.0 0.00 0.00 0.00 54 1008.5
20260504033539 53 320 2.0 7.0 0.00 0.00 0.00 56 1008.5
20260504033041 52 248 2.0 7.0 0.00 0.00 0.00 56 1008.5
20260504032539 52 274 2.0 11.0 0.00 0.00 0.00 57 1008.5
20260504032043 52 261 2.0 11.0 0.00 0.00 0.00 58 1008.6
20260504031538 51 298 1.0 9.0 0.00 0.00 0.00 59 1008.6
20260504031039 51 317 1.0 7.0 0.00 0.00 0.00 60 1008.6
20260504030538 50 229 1.0 8.0 0.00 0.00 0.00 60 1008.7
20260504030045 50 236 2.0 8.0 0.00 0.00 0.00 60 1008.8
20260504025538 50 240 0.0 4.0 0.00 0.00 0.00 63 1008.8
20260504025037 50 226 0.0 3.0 0.00 0.00 0.00 65 1008.9
20260504024537 50 217 0.0 3.0 0.00 0.00 0.00 66 1008.9
20260504024037 50 205 0.0 2.0 0.00 0.00 0.00 66 1009.0
20260504023537 50 215 0.0 2.0 0.00 0.00 0.00 64 1009.1
20260504023037 50 253 0.0 2.0 0.00 0.00 0.00 63 1009.2
20260504022537 50 198 0.0 2.0 0.00 0.00 0.00 64 1009.2
20260504022036 50 231 0.0 1.0 0.00 0.00 0.00 63 1009.2